Flag for France Weather past 2 weeks in Bordeaux, France

Now
45 °F

Passing clouds.


Feels Like: 43 °F
Forecast: 40 / 66 °F
Wind: 3 mph from Southwest

Location: Bordeaux / Merignac

Current Time: Oct 22, 2014 at 8:23:02 AM

Latest Report: Oct 22, 2014 at 8:00 AM


Visibility: N/A

Pressure: 30.45 "Hg

Humidity: 93%

Dew point: 43 °F

Location of BordeauxLocation

Historic Weather in Bordeaux — Graph

°F

Bordeaux temperature yesterday

Maximum temperature yesterday: 72 °F (at 12:30 PM)
Minimum temperature yesterday: 57 °F (at 11:00 PM)
Average temperature yesterday: 64 °F

Past Weeks' High & Low Weather Summary

 TemperatureHumidityPressure
High82 °F (Oct 17, 5:00 PM)100% (Oct 9, 6:30 AM)30.45 "Hg (Oct 9, 6:30 AM)
Low45 °F (Oct 22, 7:00 AM)40% (Oct 17, 5:00 PM)29.56 "Hg (Oct 12, 7:30 AM)
Average64 °F82%29.90 "Hg
* Reported Oct 7 7:00 AM — Oct 22 7:00 AM, Bordeaux, Weather by CustomWeather, © 2014

Note: Actual official high and low records may vary slightly from our data, if they occured in-between our weather recording intervals... More about our weather records

Advertising

Bordeaux weather history for previous 24 hours

 ConditionsComfort  
Time TempWeatherWind HumidityBarometerVisibility
7:00 AM
Oct 22
45 °FClear.No wind93%30.45 "HgN/A
6:30 AM46 °FClear.1 mph87%30.45 "HgN/A
6:00 AM46 °FClear.No wind87%30.45 "HgN/A
5:30 AM48 °FPassing clouds.No wind82%30.45 "HgN/A
5:00 AM50 °FOvercast.1 mph82%30.45 "HgN/A
4:30 AM48 °FOvercast.No wind87%30.45 "HgN/A
4:00 AM50 °FPassing clouds.No wind82%30.42 "HgN/A
3:30 AM52 °FPassing clouds.1 mph77%30.42 "HgN/A
3:00 AM54 °FOvercast.1 mph72%30.42 "HgN/A
2:30 AM55 °FMostly cloudy.6 mph72%30.42 "HgN/A
2:00 AM55 °FMostly cloudy.5 mph72%30.42 "HgN/A
1:30 AM54 °FMostly cloudy.5 mph77%30.39 "HgN/A
1:00 AM54 °FPassing clouds.5 mph77%30.39 "HgN/A
12:30 AM55 °FPassing clouds.6 mph72%30.39 "HgN/A
12:00 AM55 °FPassing clouds.6 mph72%30.39 "HgN/A
11:30 PM
Oct 21
57 °FOvercast.6 mph67%30.39 "HgN/A
11:00 PM57 °FPartly cloudy.7 mph67%30.36 "HgN/A
10:30 PM59 °FPassing clouds.9 mph68%30.36 "HgN/A
10:00 PM59 °FOvercast.9 mph72%30.33 "HgN/A
9:30 PM61 °FOvercast.13 mph72%30.33 "HgN/A
9:00 PM61 °FMostly cloudy.8 mph77%30.30 "HgN/A
8:30 PM61 °FOvercast.8 mph77%30.30 "HgN/A
8:00 PM61 °FPartly sunny.14 mph77%30.27 "HgN/A
7:30 PM61 °FBroken clouds.13 mph83%30.27 "HgN/A
7:00 PM63 °FBroken clouds.20 mph83%30.24 "HgN/A
6:30 PM64 °FPartly sunny.18 mph78%30.24 "HgN/A
6:00 PM66 °FPartly sunny.14 mph73%30.21 "HgN/A
5:30 PM66 °FMostly cloudy.15 mph78%30.21 "HgN/A
5:00 PM64 °FBroken clouds.16 mph83%30.21 "HgN/A
4:30 PM66 °FMostly cloudy.16 mph78%30.18 "HgN/A
4:00 PM68 °FBroken clouds.18 mph73%30.18 "HgN/A
3:30 PM68 °FMostly cloudy.21 mph69%30.18 "HgN/A
3:00 PM70 °FPartly sunny.21 mph60%30.18 "HgN/A
2:30 PM70 °FPartly sunny.22 mph60%30.18 "HgN/A
2:00 PM70 °FScattered clouds.21 mph60%30.18 "HgN/A
1:30 PM72 °FBroken clouds.21 mph65%30.18 "HgN/A
1:00 PM68 °FBroken clouds.18 mph69%30.18 "HgN/A
12:30 PM72 °FPartly sunny.18 mph69%30.18 "HgN/A
12:00 PM70 °FPartly sunny.18 mph73%30.18 "HgN/A
11:30 AM68 °FMostly cloudy.15 mph78%30.15 "HgN/A
11:00 AM68 °FMostly cloudy.13 mph88%30.15 "HgN/A
10:30 AM66 °FBroken clouds.10 mph94%30.15 "HgN/A
10:00 AM64 °FBroken clouds.8 mph94%30.15 "HgN/A
9:30 AM64 °FMostly cloudy.7 mph94%30.15 "HgN/A
9:00 AM63 °FMostly cloudy.9 mph94%30.12 "HgN/A
8:30 AM63 °FPassing clouds.8 mph94%30.12 "HgN/A
8:00 AM63 °FMostly cloudy.7 mph100%30.12 "HgN/A
Weather by CustomWeather, © 2014

See weather overviewHow to use our weather pages